This demonstration page uses our WeatherBlox Daily Observations layout. Learn more.

Left ArrowRight Arrow

Hourly Observations for June 6, 2015

Temp ( °F °C ) Dew Point ( °F °C ) Humidity (%) Winds ( mph kmh ) Pressure ( in mb ) Visibility ( mi km ) Precip ( " mm )
12:51 am 00:51 Clear 74 23.3 54 12.2 50 50 WNW 7 11 29.73 1007 10 16 0.00 0.00
1:51 am 01:51 Clear 72 22.2 55 12.8 55 55 W 3 6 29.74 1007 10 16 0.00 0.00
2:51 am 02:51 Clear 71 21.7 54 12.2 55 55 Calm 29.75 1008 10 16 0.00 0.00
3:51 am 03:51 Clear 69 20.6 50 10 51 51 SSE 3 6 29.76 1008 10 16 0.00 0.00
4:51 am 04:51 Clear 69 20.6 54 12.2 59 59 SE 3 6 29.76 1008 10 16 0.00 0.00
5:51 am 05:51 Sunny 69 20.6 53 11.7 57 57 E 6 9 29.77 1008 10 16 0.00 0.00
6:51 am 06:51 Sunny 75 23.9 49 9.4 40 40 ESE 7 11 29.77 1008 10 16 0.00 0.00
7:51 am 07:51 Sunny 81 27.2 44 6.7 27 27 ESE 10 17 29.77 1008 10 16 0.00 0.00
8:51 am 08:51 Sunny 84 28.9 43 6.1 24 24 SE 9 15 29.77 1008 10 16 0.00 0.00
9:51 am 09:51 Sunny 87 30.6 41 5 20 20 S 17 28 29.75 1008 10 16 0.00 0.00
10:51 am 10:51 Sunny 91 32.8 40 4.4 17 17 SW 16 26 29.74 1007 10 16 0.00 0.00
11:51 am 11:51 Sunny 90 32.2 39 3.9 17 17 SSW 14 22 29.73 1007 10 16 0.00 0.00
12:51 pm 12:51 undefined 92 33.3 39 3.9 16 16 SSW 9 15 29.71 1006 10 16 0.00 0.00
1:51 pm 13:51 undefined 96 35.6 37 2.8 13 13 W 16 26 29.68 1005 10 16 0.00 0.00
2:51 pm 14:51 undefined 94 34.4 37 2.8 14 14 WSW 10 17 29.67 1005 10 16 0.00 0.00
3:51 pm 15:51 undefined 94 34.4 37 2.8 14 14 WSW 10 17 29.65 1004 10 16 0.00 0.00
4:51 pm 16:51 undefined 93 33.9 38 3.3 14 14 SW 7 11 29.65 1004 10 16 0.00 0.00
5:51 pm 17:51 undefined 93 33.9 35 1.7 13 13 SW 12 19 29.64 1004 10 16 0.00 0.00
6:51 pm 18:51 undefined 91 32.8 37 2.8 15 15 SW 15 24 29.65 1004 10 16 0.00 0.00
7:36 pm 19:36 undefined 88 31.1 44 6.7 22 22 NW 15 24 29.59 1002 10 16 0.00 0.00
7:51 pm 19:51 undefined 87 30.6 44 6.7 22 22 NW 13 20 29.67 1005 10 16 0.00 0.00
8:51 pm 20:51 undefined 83 28.3 45 7.2 26 26 NW 13 20 29.69 1006 10 16 0.00 0.00
9:51 pm 21:51 undefined 82 27.8 44 6.7 26 26 NW 12 19 29.71 1006 10 16 0.00 0.00
10:51 pm 22:51 undefined 78 25.6 43 6.1 29 29 NNW 8 13 29.72 1006 10 16 0.00 0.00
11:51 pm 23:51 undefined 78 25.6 43 6.1 29 29 NNW 7 11 29.73 1007 10 16 0.00 0.00

Powered by AerisWeather